Theta_e
320 318 318 318 318 317 317 317 322 321 321 320 321 321 322 321 320 320 318 318 319 317
319 319 317 319 320 317 320 318 320 321 321 320 318 319 319 316 317 318 319 319 318 316
319 318 318 320 320 320 321 321 320 321 319 317 318 318 318 317 318 317 320 320 318 317
316 317 320 319 319 319 320 320 320 318 317 317 315 317 316 317 317 316 317 319 317 316
318 320 319 320 320 321 320 321 318 316 315 314 314 316 316 314 315 314 314 314 316 314
317 319 320 321 321 320 320 319 318 318 314 312 314 313 316 315 314 314 314 314 314 313
317 319 319 321 320 318 319 318 317 316 315 312 312 312 314 313 313 313 312 312 311 313
318 319 319 320 321 319 319 318 317 315 316 314 312 310 312 313 313 312 311 308 308 310
317 316 319 319 320 320 317 318 318 314 313 313 311 303 306 309 313 312 309 306 308 308
316 316 317 318 318 319 317 319 317 316 314 313 312 302 303 307 311 313 310 310 311 308
315 316 317 318 319 320 319 319 318 316 317 314 310 302 302 304 315 313 312 311 312 309
315 316 316 317 319 319 320 320 318 317 317 316 313 300 300 306 315 312 310 311 311 311
316 317 317 318 318 320 321 319 317 316 318 310 314 298 299 303 312 312 311 314 314 303
318 319 319 320 320 320 321 319 318 316 319 316 311 312 300 300 313 312 311 311 312 312
Wind_Speed
15 12 12 11 11 8 9 8 11 11 11 10 12 12 12 10 9 10 10 12 9 8
9 9 9 11 8 7 9 10 12 11 12 11 14 12 14 9 10 10 9 9 9 8
7 9 8 9 9 8 10 12 12 12 13 11 12 12 11 10 11 12 9 8 10 8
7 7 8 9 10 12 11 10 12 13 11 12 12 12 11 12 11 12 12 12 12 4
5 7 9 7 10 11 12 12 12 11 11 11 11 13 12 11 12 12 13 15 13 8
6 9 7 8 10 11 12 11 11 12 9 10 12 12 12 13 13 12 13 15 14 11
6 8 9 8 7 7 10 10 8 9 11 9 12 12 13 12 12 11 13 13 13 13
5 9 9 9 9 8 10 8 8 13 10 9 10 10 12 11 11 11 12 10 11 11
8 5 7 8 10 10 9 9 8 9 10 9 8 11 13 12 11 12 10 9 8 9
8 6 6 7 9 10 7 6 9 9 8 9 10 11 11 12 7 10 11 11 9 9
7 9 9 7 9 9 6 7 8 9 10 9 9 8 10 14 9 9 11 10 11 13
8 8 9 9 8 8 7 6 8 8 11 9 8 7 11 12 8 10 10 9 10 9
6 7 8 7 8 7 6 5 6 8 8 9 7 8 10 9 4 5 3 6 7 8
5 6 5 6 5 5 5 5 6 5 4 8 7 6 9 12 5 8 4 6 6 8
Wind_Direction
12 2 8 360 346 348 340 344 355 349 348 345 343 337 349 332 335 323 314 314 308 301
5 6 9 343 343 355 339 337 353 351 350 355 0 356 340 354 339 339 330 314 309 294
13 357 354 333 351 345 354 348 354 355 6 7 351 3 349 343 348 335 333 320 301 284
14 345 345 359 357 15 354 358 9 7 348 12 357 358 353 342 345 354 353 350 348 318
6 350 3 360 5 11 3 13 12 354 359 17 350 357 352 1 2 358 6 7 11 48
358 357 357 12 19 11 359 13 3 7 15 14 5 358 1 7 9 9 20 22 15 23
13 339 7 4 23 19 4 4 9 9 24 5 21 7 5 14 5 20 30 31 17 29
54 346 12 8 37 33 359 9 12 16 17 19 30 19 0 19 15 25 40 27 24 19
19 38 8 332 39 40 3 14 27 22 15 28 38 360 351 350 28 41 48 34 28 27
17 23 36 337 19 41 351 6 34 7 23 42 36 3 348 340 46 49 41 31 31 51
7 17 9 15 7 38 14 24 31 353 29 46 51 356 342 336 63 66 59 47 49 62
16 18 13 9 6 11 21 9 48 351 36 45 55 0 1 351 74 67 61 58 39 44
25 5 10 16 5 348 25 13 47 22 29 35 63 35 359 357 20 27 41 76 80 64
13 323 28 352 9 358 9 10 68 35 5 61 18 54 5 353 67 3 35 41 34 41